Regional Weather Roundup
Issued by NWS

Home | Current Version | Previous Version | Graphics & Text | Print | Product List | Glossary On
Versions: 1 2 3 4 5 6 7 8 9 10 11 12 13 14 15 16 17 18 19 20 21 22 23 24 25 26 27 28 29 30 31 32 33 34 35 36 37 38 39 40 41 42 43 44 45 46 47 48 49 50
000
ASUS43 KBIS 180410
RWRND

NORTH DAKOTA REGIONAL WEATHER ROUNDUP
NATIONAL WEATHER SERVICE BISMARCK ND
1100 PM CDT THU APR 17 2014

NOTE: "FAIR" INDICATES FEW OR NO CLOUDS BELOW 12,000 FEET WITH NO
SIGNIFICANT WEATHER AND/OR OBSTRUCTIONS TO VISIBILITY.


NDZ001>003-009>011-017-180500-
NORTHWEST NORTH DAKOTA

CITY           SKY/WX    TMP DP  RH WIND       PRES   REMARKS
WILLISTON      MOCLDY    39  26  59 SE9       30.01S
MINOT          CLOUDY    35  21  56 E10       30.12F
MINOT AFB      CLOUDY    34  23  64 E14       30.12F
$$

NDZ018>021-031>035-040>046-180500-
SOUTHWEST NORTH DAKOTA

CITY           SKY/WX    TMP DP  RH WIND       PRES   REMARKS
BISMARCK       MOCLDY    33  23  66 SE8       30.14S
DICKINSON      CLOUDY    38  26  62 SE17      30.00S
GARRISON         N/A     36  24  62 SE12      30.10F
HETTINGER ARPT CLOUDY    36  26  67 SE14      30.02S
$$

NDZ004>008-012>016-024-026-027-054-180500-
NORTHEAST NORTH DAKOTA

CITY           SKY/WX    TMP DP  RH WIND       PRES   REMARKS
GRAND FORKS    CLOUDY    33  18  53 NE6       30.30S
GRND FRKS AFB  CLOUDY    34  12  40 E6        30.30S
DEVILS LAKE    MOCLDY    34  16  47 E14G20    30.23F
$$

NDZ022-023-025-028>030-036>039-047>053-180500-
SOUTHEAST NORTH DAKOTA

CITY           SKY/WX    TMP DP  RH WIND       PRES   REMARKS
FARGO          CLOUDY    34  20  56 NE7       30.29S
JAMESTOWN      PTCLDY    31  19  61 E10       30.21S
$$




USA.gov is the U.S. government's official web portal to all federal, state and local government web resources and services.